SWR1106 LSZH-LEBL

Flight info

Callsign SWR1106
Flight time 1h 26m
Altitude 37000
Route VEBIT T50 ROTOS Z669 ULMES DCT VADAR DCT GEVEA DCT INCUS DCT BALSI DCT ETIDO DCT KURIR DCT PEQEF DCT NAKIS DCT BOLSA DCT PPG DCT ALBER
Aircraft A320/M-SDE3FGHIRWY/LB1

Departure

Time 2026-05-05 12:57
Airport Zürich Airport (LSZH)

Arrival

Time 2026-05-05 14:24
Airport Josep Tarradellas Barcelona-El Prat Airport (LEBL)
Time Latitude Longitude Altitude Speed Heading
2026-05-05 12:40 47.45407 8.56001 1414 ft 0 kts 186°
2026-05-05 12:50 47.45406 8.56001 1413 ft 0 kts 186°
2026-05-05 12:50 47.45417 8.56002 1418 ft 2 kts 186°
2026-05-05 12:50 47.45431 8.56004 1416 ft 2 kts 186°
2026-05-05 12:51 47.45445 8.56006 1415 ft 2 kts 186°
2026-05-05 12:51 47.45459 8.56008 1415 ft 2 kts 185°
2026-05-05 12:51 47.45472 8.56010 1415 ft 2 kts 185°
2026-05-05 12:51 47.45483 8.56013 1415 ft 1 kts 151°
2026-05-05 12:52 47.45488 8.56009 1416 ft 1 kts 106°
2026-05-05 12:52 47.45490 8.56001 1418 ft 1 kts 99°
2026-05-05 12:52 47.45491 8.55993 1415 ft 1 kts 97°
2026-05-05 12:52 47.45491 8.55985 1418 ft 1 kts 97°
2026-05-05 12:53 47.45492 8.55979 1417 ft 0 kts 97°
2026-05-05 12:53 47.45490 8.56000 1415 ft 0 kts 96°
2026-05-05 12:53 47.45488 8.56026 1417 ft 5 kts 96°
2026-05-05 12:53 47.45483 8.56103 1416 ft 10 kts 96°
2026-05-05 12:54 47.45555 8.56353 1419 ft 16 kts 51°
2026-05-05 12:54 47.45591 8.56510 1421 ft 17 kts 94°
2026-05-05 12:54 47.45579 8.56695 1422 ft 19 kts 95°
2026-05-05 12:55 47.45567 8.56899 1424 ft 21 kts 97°
2026-05-05 12:55 47.45578 8.56997 1425 ft 0 kts 50°
2026-05-05 12:55 47.45619 8.57022 1426 ft 12 kts
2026-05-05 12:56 47.45668 8.56924 1425 ft 15 kts 275°
2026-05-05 12:56 47.45671 8.56879 1425 ft 1 kts 275°
2026-05-05 12:56 47.45673 8.56847 1425 ft 21 kts 275°
2026-05-05 12:56 47.45718 8.56219 1419 ft 97 kts 276°
2026-05-05 12:57 47.45806 8.54943 1414 ft 149 kts 276°
2026-05-05 12:57 47.45905 8.53394 1962 ft 147 kts 275°
2026-05-05 12:57 47.46012 8.51844 2543 ft 160 kts 276°
2026-05-05 12:57 47.46134 8.50169 3121 ft 167 kts 275°
2026-05-05 12:58 47.46203 8.48400 3682 ft 177 kts 261°
2026-05-05 12:58 47.45558 8.46897 4218 ft 186 kts 218°
2026-05-05 12:58 47.44426 8.45732 4572 ft 211 kts 226°
2026-05-05 12:58 47.43401 8.44002 5045 ft 234 kts 234°
2026-05-05 12:59 47.42403 8.41954 5574 ft 254 kts 236°
2026-05-05 12:59 47.41378 8.39756 6467 ft 262 kts 235°
2026-05-05 12:59 47.40334 8.37541 7376 ft 265 kts 234°
2026-05-05 13:00 47.38317 8.32919 9288 ft 269 kts 244°
2026-05-05 13:00 47.37505 8.30414 10158 ft 275 kts 242°
2026-05-05 13:01 47.34556 8.22156 11590 ft 319 kts 241°
2026-05-05 13:01 47.33507 8.19244 12356 ft 323 kts 241°
2026-05-05 13:01 47.32454 8.16302 13128 ft 326 kts 241°
2026-05-05 13:01 47.31391 8.13326 13869 ft 330 kts 242°
2026-05-05 13:02 47.30312 8.10299 14536 ft 334 kts 241°
2026-05-05 13:02 47.29235 8.07287 15169 ft 339 kts 241°
2026-05-05 13:02 47.28117 8.04158 15806 ft 343 kts 241°
2026-05-05 13:02 47.27002 8.01014 16426 ft 348 kts 242°
2026-05-05 13:03 47.26057 7.97751 17029 ft 353 kts 246°
2026-05-05 13:03 47.25119 7.94368 17645 ft 358 kts 246°
2026-05-05 13:03 47.24165 7.90944 18246 ft 362 kts 245°
2026-05-05 13:03 47.23520 7.88637 18600 ft 365 kts 245°
2026-05-05 13:04 47.22584 7.85304 19136 ft 369 kts 245°
2026-05-05 13:04 47.21595 7.81795 19700 ft 372 kts 245°
2026-05-05 13:04 47.20593 7.78237 20272 ft 375 kts 245°
2026-05-05 13:04 47.19594 7.74715 20829 ft 378 kts 243°
2026-05-05 13:05 47.18312 7.71327 21383 ft 380 kts 233°
2026-05-05 13:05 47.16698 7.68236 21934 ft 382 kts 230°
2026-05-05 13:05 47.15031 7.65153 22500 ft 385 kts 230°
2026-05-05 13:05 47.13349 7.62054 23035 ft 389 kts 230°
2026-05-05 13:06 47.11655 7.58928 23521 ft 392 kts 230°
2026-05-05 13:06 47.09948 7.55773 23984 ft 395 kts 230°
2026-05-05 13:06 47.08235 7.52607 24427 ft 397 kts 229°
2026-05-05 13:06 47.06517 7.49442 24870 ft 399 kts 229°
2026-05-05 13:07 47.04788 7.46270 25312 ft 401 kts 229°
2026-05-05 13:07 47.03042 7.43063 25726 ft 402 kts 229°
2026-05-05 13:07 47.01285 7.39836 26127 ft 404 kts 229°
2026-05-05 13:07 46.99535 7.36630 26533 ft 406 kts 229°
2026-05-05 13:08 46.97762 7.33391 26924 ft 409 kts 229°
2026-05-05 13:08 46.95975 7.30135 27325 ft 410 kts 229°
2026-05-05 13:08 46.94183 7.26872 27701 ft 412 kts 229°
2026-05-05 13:08 46.92373 7.23568 28111 ft 414 kts 229°
2026-05-05 13:09 46.90561 7.20258 28497 ft 416 kts 229°
2026-05-05 13:09 46.88749 7.16947 28883 ft 418 kts 229°
2026-05-05 13:09 46.86928 7.13624 29245 ft 419 kts 229°
2026-05-05 13:09 46.85115 7.10325 29605 ft 420 kts 229°
2026-05-05 13:10 46.83269 7.06982 29950 ft 422 kts 229°
2026-05-05 13:10 46.81412 7.03624 30236 ft 423 kts 229°
2026-05-05 13:10 46.79554 7.00268 30521 ft 424 kts 229°
2026-05-05 13:10 46.77716 6.96951 30793 ft 425 kts 229°
2026-05-05 13:11 46.75852 6.93591 31066 ft 425 kts 229°
2026-05-05 13:11 46.73991 6.90234 31332 ft 426 kts 229°
2026-05-05 13:11 46.72126 6.86870 31679 ft 424 kts 229°
2026-05-05 13:11 46.70288 6.83560 32041 ft 422 kts 229°
2026-05-05 13:12 46.68435 6.80228 32405 ft 420 kts 229°
2026-05-05 13:12 46.66542 6.76993 32771 ft 417 kts 224°
2026-05-05 13:12 46.64363 6.74226 33138 ft 414 kts 215°
2026-05-05 13:12 46.61937 6.71956 33491 ft 412 kts 211°
2026-05-05 13:13 46.59531 6.69813 33854 ft 410 kts 212°
2026-05-05 13:13 46.57089 6.67630 34170 ft 409 kts 212°
2026-05-05 13:13 46.54670 6.65462 34441 ft 408 kts 212°
2026-05-05 13:13 46.52249 6.63285 34702 ft 408 kts 212°
2026-05-05 13:14 46.49827 6.61107 34940 ft 409 kts 212°
2026-05-05 13:14 46.47416 6.58942 35165 ft 409 kts 212°
2026-05-05 13:14 46.44994 6.56774 35372 ft 409 kts 212°
2026-05-05 13:14 46.43377 6.55330 35525 ft 409 kts 212°
2026-05-05 13:15 46.40944 6.53165 35733 ft 410 kts 212°
2026-05-05 13:15 46.37716 6.50299 36006 ft 410 kts 212°
2026-05-05 13:15 46.36071 6.48839 36144 ft 410 kts 212°
2026-05-05 13:15 46.33658 6.46701 36337 ft 410 kts 212°
2026-05-05 13:16 46.31215 6.44539 36530 ft 411 kts 212°
2026-05-05 13:16 46.28765 6.42371 36717 ft 411 kts 212°
2026-05-05 13:16 46.26321 6.40203 36882 ft 412 kts 212°
2026-05-05 13:16 46.23862 6.38026 36917 ft 411 kts 212°
2026-05-05 13:17 46.18996 6.33730 36916 ft 411 kts 212°
2026-05-05 13:17 46.14131 6.29446 36926 ft 411 kts 212°
2026-05-05 13:18 46.09255 6.25161 36921 ft 410 kts 212°
2026-05-05 13:18 46.04359 6.20869 36920 ft 410 kts 212°
2026-05-05 13:19 45.99501 6.16605 36930 ft 410 kts 212°
2026-05-05 13:19 45.94645 6.12360 36930 ft 409 kts 212°
2026-05-05 13:20 45.89757 6.08115 36930 ft 409 kts 212°
2026-05-05 13:20 45.84669 6.04468 36938 ft 411 kts 199°
2026-05-05 13:21 45.79039 6.02958 36936 ft 414 kts 192°
2026-05-05 13:21 45.73340 6.01702 36932 ft 414 kts 192°
2026-05-05 13:22 45.67631 6.00439 36927 ft 413 kts 192°
2026-05-05 13:22 45.61952 5.99189 36928 ft 413 kts 192°
2026-05-05 13:23 45.56254 5.97936 36932 ft 413 kts 192°
2026-05-05 13:23 45.50637 5.96487 36927 ft 409 kts 201°
2026-05-05 13:24 45.45642 5.92817 36929 ft 402 kts 219°
2026-05-05 13:24 45.41619 5.87275 36928 ft 401 kts 226°
2026-05-05 13:25 45.37700 5.81664 36926 ft 401 kts 225°
2026-05-05 13:25 45.33740 5.76018 36920 ft 401 kts 226°
2026-05-05 13:26 45.29813 5.70417 36927 ft 400 kts 225°
2026-05-05 13:26 45.25884 5.64825 36929 ft 400 kts 225°
2026-05-05 13:27 45.21949 5.59233 36928 ft 400 kts 225°
2026-05-05 13:27 45.18007 5.53645 36926 ft 399 kts 225°
2026-05-05 13:28 45.14096 5.48105 36923 ft 398 kts 225°
2026-05-05 13:28 45.10179 5.42572 36924 ft 398 kts 225°
2026-05-05 13:29 45.06249 5.37035 36922 ft 398 kts 225°
2026-05-05 13:29 45.02319 5.31504 36917 ft 398 kts 225°
2026-05-05 13:30 44.98383 5.25994 36912 ft 397 kts 225°
2026-05-05 13:30 44.94460 5.20514 36906 ft 397 kts 225°
2026-05-05 13:31 44.90536 5.15027 36904 ft 397 kts 225°
2026-05-05 13:31 44.86614 5.09551 36900 ft 396 kts 225°
2026-05-05 13:32 44.82691 5.04094 36902 ft 396 kts 225°
2026-05-05 13:32 44.78764 4.98647 36899 ft 396 kts 225°
2026-05-05 13:33 44.74806 4.93174 36906 ft 396 kts 225°
2026-05-05 13:33 44.71159 4.87462 36923 ft 395 kts 233°
2026-05-05 13:34 44.67826 4.81252 36917 ft 395 kts 232°
2026-05-05 13:34 44.64498 4.75104 36920 ft 395 kts 232°
2026-05-05 13:35 44.61166 4.68966 36929 ft 395 kts 232°
2026-05-05 13:35 44.57847 4.62847 36940 ft 396 kts 232°
2026-05-05 13:36 44.54503 4.56693 36927 ft 395 kts 232°
2026-05-05 13:36 44.51151 4.50547 36938 ft 395 kts 232°
2026-05-05 13:37 44.47823 4.44463 36933 ft 395 kts 232°
2026-05-05 13:37 44.44497 4.38370 36929 ft 394 kts 232°
2026-05-05 13:38 44.41154 4.32260 36925 ft 394 kts 232°
2026-05-05 13:38 44.37905 4.26054 36925 ft 395 kts 239°
2026-05-05 13:39 44.35488 4.19162 36918 ft 396 kts 242°
2026-05-05 13:39 44.32897 4.12376 36899 ft 395 kts 233°
2026-05-05 13:40 44.28910 4.07125 36897 ft 396 kts 214°
2026-05-05 13:40 44.24123 4.03256 36892 ft 398 kts 212°
2026-05-05 13:41 44.19352 3.99424 36895 ft 398 kts 212°
2026-05-05 13:41 44.14529 3.95557 36909 ft 399 kts 212°
2026-05-05 13:42 44.09708 3.91687 36918 ft 399 kts 212°
2026-05-05 13:42 44.04917 3.87844 36910 ft 399 kts 212°
2026-05-05 13:43 44.00081 3.83989 36908 ft 398 kts 212°
2026-05-05 13:43 43.95277 3.80170 36920 ft 398 kts 212°
2026-05-05 13:44 43.90462 3.76345 36924 ft 398 kts 212°
2026-05-05 13:44 43.85678 3.72544 36925 ft 397 kts 212°
2026-05-05 13:45 43.80866 3.68733 36924 ft 397 kts 212°
2026-05-05 13:45 43.76872 3.65576 36927 ft 397 kts 212°
2026-05-05 13:46 43.72070 3.61781 36931 ft 397 kts 212°
2026-05-05 13:46 43.67295 3.58014 36929 ft 397 kts 212°
2026-05-05 13:47 43.62493 3.54233 36927 ft 396 kts 212°
2026-05-05 13:47 43.57690 3.50467 36926 ft 396 kts 212°
2026-05-05 13:48 43.52906 3.46719 36925 ft 395 kts 212°
2026-05-05 13:48 43.48121 3.42976 36924 ft 394 kts 213°
2026-05-05 13:49 43.43352 3.39247 36923 ft 394 kts 213°
2026-05-05 13:49 43.38586 3.35535 36923 ft 393 kts 213°
2026-05-05 13:50 43.33822 3.31832 36924 ft 393 kts 213°
2026-05-05 13:50 43.29063 3.28143 36924 ft 393 kts 213°
2026-05-05 13:51 43.24297 3.24460 36919 ft 393 kts 213°
2026-05-05 13:51 43.19525 3.20775 36921 ft 393 kts 213°
2026-05-05 13:52 43.14743 3.17078 36932 ft 393 kts 213°
2026-05-05 13:52 43.09996 3.13416 36930 ft 393 kts 213°
2026-05-05 13:53 43.05211 3.09737 36932 ft 393 kts 213°
2026-05-05 13:53 43.00459 3.06093 36945 ft 392 kts 212°
2026-05-05 13:54 42.95688 3.02446 36889 ft 391 kts 212°
2026-05-05 13:54 42.93295 3.00621 35966 ft 396 kts 212°
2026-05-05 13:54 42.90893 2.98785 35225 ft 393 kts 212°
2026-05-05 13:55 42.88540 2.96991 34529 ft 388 kts 212°
2026-05-05 13:55 42.86205 2.95216 34088 ft 378 kts 212°
2026-05-05 13:55 42.83913 2.93475 33250 ft 377 kts 212°
2026-05-05 13:55 42.81635 2.91744 32700 ft 370 kts 212°
2026-05-05 13:56 42.79401 2.90048 32204 ft 363 kts 212°
2026-05-05 13:56 42.77219 2.88403 31715 ft 357 kts 211°
2026-05-05 13:56 42.74922 2.87122 31165 ft 358 kts 202°
2026-05-05 13:56 42.72473 2.86404 30632 ft 363 kts 194°
2026-05-05 13:57 42.69952 2.86104 30087 ft 362 kts 192°
2026-05-05 13:57 42.67467 2.85824 29490 ft 359 kts 192°
2026-05-05 13:57 42.64988 2.85539 28960 ft 355 kts 192°
2026-05-05 13:57 42.62533 2.85255 28436 ft 350 kts 192°
2026-05-05 13:58 42.60107 2.84974 27920 ft 346 kts 192°
2026-05-05 13:58 42.57707 2.84696 27418 ft 343 kts 192°
2026-05-05 13:58 42.55366 2.84423 26933 ft 339 kts 192°
2026-05-05 13:58 42.53026 2.84148 26462 ft 336 kts 192°
2026-05-05 13:59 42.48410 2.83606 25542 ft 331 kts 192°
2026-05-05 13:59 42.46123 2.83338 25102 ft 328 kts 192°
2026-05-05 14:00 42.41599 2.82333 24349 ft 334 kts 197°
2026-05-05 14:00 42.40083 2.81954 24104 ft 335 kts 196°
2026-05-05 14:00 42.37010 2.81197 23609 ft 335 kts 196°
2026-05-05 14:00 42.34737 2.80642 23213 ft 335 kts 196°
2026-05-05 14:01 42.32445 2.80084 22839 ft 334 kts 196°
2026-05-05 14:01 42.30155 2.79525 22471 ft 333 kts 196°
2026-05-05 14:01 42.27873 2.78965 22102 ft 332 kts 195°
2026-05-05 14:01 42.25598 2.78405 21738 ft 331 kts 195°
2026-05-05 14:02 42.23323 2.77849 21382 ft 330 kts 195°
2026-05-05 14:02 42.21056 2.77295 21025 ft 329 kts 195°
2026-05-05 14:02 42.18832 2.76750 20671 ft 328 kts 195°
2026-05-05 14:02 42.16587 2.76198 20315 ft 327 kts 195°
2026-05-05 14:03 42.14429 2.75349 19958 ft 320 kts 207°
2026-05-05 14:03 42.12515 2.73879 19621 ft 315 kts 219°
2026-05-05 14:03 42.10914 2.71872 19278 ft 312 kts 229°
2026-05-05 14:03 42.09476 2.69661 18939 ft 312 kts 229°
2026-05-05 14:04 42.08034 2.67461 18603 ft 313 kts 229°
2026-05-05 14:04 42.06610 2.65296 18261 ft 312 kts 229°
2026-05-05 14:04 42.05171 2.63109 17892 ft 311 kts 229°
2026-05-05 14:04 42.03735 2.60929 17545 ft 310 kts 229°
2026-05-05 14:05 42.02300 2.58754 17206 ft 309 kts 229°
2026-05-05 14:05 42.00872 2.56593 16870 ft 309 kts 229°
2026-05-05 14:05 41.99447 2.54435 16529 ft 308 kts 228°
2026-05-05 14:05 41.98029 2.52287 16206 ft 307 kts 228°
2026-05-05 14:06 41.96616 2.50145 15867 ft 307 kts 228°
2026-05-05 14:06 41.95201 2.48007 15532 ft 305 kts 228°
2026-05-05 14:06 41.93785 2.45865 15194 ft 305 kts 228°
2026-05-05 14:06 41.92378 2.43744 14862 ft 304 kts 228°
2026-05-05 14:07 41.90975 2.41628 14532 ft 303 kts 227°
2026-05-05 14:07 41.89570 2.39509 14198 ft 302 kts 227°
2026-05-05 14:07 41.88179 2.37406 13874 ft 301 kts 227°
2026-05-05 14:07 41.86790 2.35307 13530 ft 301 kts 227°
2026-05-05 14:08 41.85399 2.33212 13191 ft 300 kts 227°
2026-05-05 14:08 41.84006 2.31120 12858 ft 299 kts 227°
2026-05-05 14:08 41.82624 2.29044 12537 ft 298 kts 227°
2026-05-05 14:08 41.81247 2.26978 12220 ft 297 kts 227°
2026-05-05 14:09 41.79875 2.24919 11896 ft 296 kts 228°
2026-05-05 14:09 41.78508 2.22865 11575 ft 295 kts 228°
2026-05-05 14:09 41.77146 2.20817 11264 ft 294 kts 228°
2026-05-05 14:09 41.75788 2.18779 10937 ft 292 kts 228°
2026-05-05 14:10 41.74432 2.16750 10619 ft 291 kts 228°
2026-05-05 14:10 41.73080 2.14732 10292 ft 290 kts 228°
2026-05-05 14:10 41.71744 2.12739 10055 ft 282 kts 228°
2026-05-05 14:10 41.70395 2.10919 9884 ft 272 kts 218°
2026-05-05 14:11 41.68749 2.09718 9699 ft 270 kts 201°
2026-05-05 14:11 41.66897 2.09250 9393 ft 273 kts 184°
2026-05-05 14:11 41.64993 2.09420 8975 ft 274 kts 178°
2026-05-05 14:11 41.63096 2.09650 8548 ft 274 kts 178°
2026-05-05 14:12 41.61196 2.09879 8123 ft 274 kts 178°
2026-05-05 14:12 41.59295 2.10107 7695 ft 273 kts 178°
2026-05-05 14:12 41.57402 2.10333 7270 ft 273 kts 178°
2026-05-05 14:12 41.55506 2.10560 6853 ft 273 kts 177°
2026-05-05 14:13 41.53630 2.10869 6451 ft 273 kts 169°
2026-05-05 14:13 41.51862 2.11831 6069 ft 275 kts 152°
2026-05-05 14:13 41.50394 2.13442 5658 ft 277 kts 134°
2026-05-05 14:13 41.49142 2.15402 5192 ft 277 kts 133°
2026-05-05 14:14 41.47891 2.17357 4735 ft 277 kts 133°
2026-05-05 14:14 41.46622 2.19329 4287 ft 277 kts 133°
2026-05-05 14:14 41.45384 2.21248 4114 ft 270 kts 133°
2026-05-05 14:14 41.44182 2.23115 3973 ft 260 kts 132°
2026-05-05 14:15 41.43027 2.24912 3849 ft 249 kts 133°
2026-05-05 14:15 41.41931 2.26613 3726 ft 243 kts 133°
2026-05-05 14:15 41.41027 2.28499 3597 ft 245 kts 110°
2026-05-05 14:15 41.40793 2.30744 3522 ft 246 kts 94°
2026-05-05 14:16 41.40821 2.33035 3525 ft 248 kts 83°
2026-05-05 14:16 41.41076 2.35312 3525 ft 249 kts 82°
2026-05-05 14:16 41.41345 2.37589 3535 ft 249 kts 82°
2026-05-05 14:16 41.41531 2.39130 3539 ft 249 kts 82°
2026-05-05 14:17 41.41831 2.42147 3516 ft 247 kts 95°
2026-05-05 14:17 41.41592 2.43642 3525 ft 243 kts 116°
2026-05-05 14:17 41.40573 2.45367 3517 ft 236 kts 148°
2026-05-05 14:17 41.39083 2.46082 3517 ft 229 kts 180°
2026-05-05 14:18 41.37560 2.45614 3522 ft 227 kts 212°
2026-05-05 14:18 41.36466 2.44130 3531 ft 227 kts 241°
2026-05-05 14:18 41.36036 2.42111 3525 ft 229 kts 268°
2026-05-05 14:18 41.36338 2.40022 3533 ft 232 kts 285°
2026-05-05 14:19 41.36823 2.37975 3541 ft 232 kts 285°
2026-05-05 14:19 41.37311 2.35921 3540 ft 232 kts 285°
2026-05-05 14:19 41.37744 2.33866 3538 ft 230 kts 277°
2026-05-05 14:19 41.37727 2.31748 3401 ft 228 kts 257°
2026-05-05 14:20 41.37202 2.29785 3148 ft 223 kts 244°
2026-05-05 14:20 41.36572 2.27962 2908 ft 209 kts 244°
2026-05-05 14:20 41.35994 2.26269 2828 ft 197 kts 244°
2026-05-05 14:20 41.35436 2.24629 2626 ft 192 kts 244°
2026-05-05 14:21 41.34890 2.23026 2371 ft 183 kts 244°
2026-05-05 14:21 41.34378 2.21520 1995 ft 172 kts 243°
2026-05-05 14:21 41.33902 2.20121 1979 ft 163 kts 243°
2026-05-05 14:21 41.33450 2.18801 1993 ft 149 kts 244°
2026-05-05 14:22 41.33043 2.17604 1902 ft 142 kts 244°
2026-05-05 14:22 41.32653 2.16415 1679 ft 139 kts 245°
2026-05-05 14:22 41.32255 2.15224 1381 ft 139 kts 243°
2026-05-05 14:22 41.31855 2.14071 1042 ft 138 kts 243°
2026-05-05 14:23 41.31441 2.12905 718 ft 140 kts 242°
2026-05-05 14:23 41.31027 2.11705 320 ft 143 kts 245°
2026-05-05 14:23 41.30629 2.10504 119 ft 142 kts 240°
2026-05-05 14:23 41.30200 2.09344 16 ft 125 kts 245°
2026-05-05 14:24 41.30019 2.08782 20 ft 30 kts 225°
2026-05-05 14:24 41.29893 2.08592 20 ft 26 kts 216°
2026-05-05 14:24 41.29848 2.08548 20 ft 4 kts 218°
2026-05-05 14:24 41.29830 2.08530 21 ft 3 kts 216°
2026-05-05 14:25 41.29808 2.08510 22 ft 7 kts 215°
2026-05-05 14:25 41.29747 2.08453 18 ft 15 kts 216°
2026-05-05 14:25 41.29675 2.08309 18 ft 22 kts 247°
2026-05-05 14:25 41.29607 2.08100 18 ft 27 kts 246°
2026-05-05 14:26 41.29535 2.07889 20 ft 24 kts 246°
2026-05-05 14:26 41.29471 2.07703 21 ft 17 kts 244°
2026-05-05 14:26 41.29414 2.07555 21 ft 14 kts 228°
2026-05-05 14:26 41.29319 2.07570 21 ft 17 kts 156°
2026-05-05 14:27 41.29195 2.07644 15 ft 16 kts 156°
2026-05-05 14:27 41.29102 2.07659 14 ft 14 kts 167°
2026-05-05 14:27 41.29048 2.07689 15 ft 0 kts 155°
2026-05-05 14:27 41.29044 2.07692 14 ft 0 kts 155°